Regional Weather Roundup
Issued by NWS

Home | Current Version | Previous Version | Text Only | Print | Product List | Glossary Off
Versions: 1 2 3 4 5 6 7 8 9 10 11 12 13 14 15 16 17 18 19 20 21 22 23 24 25 26 27 28 29 30 31 32 33 34 35 36 37 38 39 40 41 42 43 44 45 46 47 48 49 50

000
ASUS43 KMPX 261301
RWRMN
WEATHER ROUNDUP FOR MINNESOTA
NATIONAL WEATHER SERVICE TWIN CITIES/CHANHASSEN MN
800 AM CDT MON JUN 26 2017


NOTE: "FAIR" INDICATES FEW OR NO CLOUDS BELOW 12,000 FEET WITH NO
SIGNIFICANT WEATHER AND/OR OBSTRUCTIONS TO VISIBILITY. N/A MEANS
CURRENT SKY AND/OR WEATHER CONDITIONS ARE NOT AVAILABLE.

MNZ060>063-068>070-261400-
   Twin Cities Metro

CITY           SKY/WX    TMP DP  RH WIND       PRES   REMARKS
TWIN CITIES    SUNNY     57  46  66 NW8       30.18R
ST PAUL        SUNNY     55  47  74 NW5       30.19R
CRYSTAL        SUNNY     55  43  63 N10       30.17R
BLAINE         SUNNY     55  46  71 NW7       30.18R
LAKEVILLE      SUNNY     55  46  71 NW6       30.18S
EDEN PRAIRIE   SUNNY     57  46  66 N10       30.17R
SOUTH ST PAUL  SUNNY     55  45  68 N7        30.18R
LAKE ELMO      FAIR      54  46  76 NW6       30.19R
$$
MNZ001>005-007-008-013>017-022>024-027-028-261400-
   Northwest Minnesota

CITY           SKY/WX    TMP DP  RH WIND       PRES   REMARKS
BEMIDJI        SUNNY     51  46  82 NW8       30.20R
HALLOCK        SUNNY     54  48  82 W3        30.20S
ROSEAU         MOSUNNY   52  46  82 W7        30.18S
WARROAD        SUNNY     50  46  87 W7        30.17S
CROOKSTON      SUNNY     52  46  82 NW3       30.23S
FOSSTON        SUNNY     52  48  87 W5        30.22R
DETROIT LAKES  SUNNY     52  45  76 NW6       30.24R
MOORHEAD       SUNNY     52  45  76 CALM      30.24S
PARK RAPIDS    SUNNY     53  43  68 NW8       30.20S
MAHNOMEN       FAIR      50  45  83 CALM      30.23R
$$
MNZ006-009>011-018-025>026-261400-
   North Central Minnesota

CITY           SKY/WX    TMP DP  RH WIND       PRES   REMARKS
BAUDETTE       MOSUNNY   51  47  86 W7        30.16R
FLAG ISLAND    MOSUNNY   52  45  76 NW12      30.13S
INTL FALLS     CLOUDY    52  49  89 W3        30.12F
WASKISH        CLOUDY    52  46  82 NW5       30.17S
BIG FORK       PTSUNNY   52  48  87 NW3       30.16S
LONGVILLE      SUNNY     54  50  87 W3        30.18S
GRAND RAPIDS   SUNNY     52  48  86 NW8       30.18S
CRANE LAKE     MOSUNNY   48  46  93 CALM      30.13F
ORR            MOSUNNY   52  46  82 NW7       30.11S
COOK           PTSUNNY   48  45  87 W6        30.14S
WALKER         FAIR      50  45  81 NW6       30.19S
$$
MNZ012-019>021-037-261400-
   Northeast Minnesota

CITY           SKY/WX    TMP DP  RH WIND       PRES   REMARKS
DULUTH         MOSUNNY   50  46  86 NW8       30.12R
ELY            SUNNY     52  48  87 NW5       30.11S
HIBBING        SUNNY     51  47  86 NW10      30.14R
EVELETH        SUNNY     53  43  70 NW8       30.14R
DULUTH HARBOR  MOSUNNY   54  46  76 SE7       30.14R
TWO HARBORS    MOSUNNY   55  48  76 NW7       30.09S
SILVER BAY     MOSUNNY   52  48  87 CALM      30.09R
GRAND MARAIS     N/A     57  50  77 N8G21     30.05S
G MARAIS ARPRT MOSUNNY   52  45  76 NW6       30.07S
$$
MNZ029>031-032-039>041-046>048-054>057-064-261400-
   West Central Minnesota

CITY           SKY/WX    TMP DP  RH WIND       PRES   REMARKS
FERGUS FALLS   SUNNY     54  46  76 N3        30.22S
WHEATON        SUNNY     54  45  71 NW5       30.26S
MORRIS         SUNNY     54  48  82 NW5       30.22S
ALEXANDRIA     SUNNY     55  47  74 N8        30.23S
ELBOW LAKE     FAIR      53  47  82 N6        30.24R
WADENA         SUNNY     52  46  82 NW5       30.21S
GLENWOOD       SUNNY     55  46  71 N7        30.22S
APPLETON       SUNNY     55  45  67 N6        30.23R
BENSON         SUNNY     55  48  76 CALM      30.24R
ORTONVILLE     SUNNY     54  45  71 N8        30.24R
MADISON        SUNNY     57  48  72 N7        30.23S
WILLMAR        FAIR      55  48  76 N7        30.23R
$$
MNZ033>034-036-042>043-049>051-058-059-261400-
   Central Minnesota

CITY           SKY/WX    TMP DP  RH WIND       PRES   REMARKS
ST CLOUD       SUNNY     53  46  77 NW8       30.19S
SAUK CENTRE    FAIR      53  44  73 NW8       30.21S
PAYNESVILLE    SUNNY     55  45  69 NW7       30.22R
AITKIN         SUNNY     54  48  82 NW6       30.16S
PINE RIVER     SUNNY     52  46  82 NW5       30.22R
BRAINERD       SUNNY     53  45  74 NW8       30.19S
STAPLES        SUNNY     52  45  76 NW7       30.21R
LONG PRAIRIE   FAIR      52  45  76 NW6       30.22R
LITTLE FALLS   SUNNY     50  43  76 NW6       30.20S
LITCHFIELD     SUNNY     55  48  76 N7        30.21R
BUFFALO        SUNNY     54  45  71 NW5       30.20S
MAPLE LAKE     SUNNY     56  49  77 NW6       30.20S
HUTCHINSON     SUNNY     56  47  72 N8        30.21R
$$
MNZ037-044-045-052-053-261400-
   East Central Minnesota

CITY           SKY/WX    TMP DP  RH WIND       PRES   REMARKS
PRINCETON      SUNNY     55  46  71 NW7       30.18S
MORA           SUNNY     50  46  87 NW6       30.18S
CAMBRIDGE      SUNNY     55  45  67 NW6       30.16S
RUSH CITY      HVY RAIN  52  46  82 NW5       30.17S
MOOSE LAKE     SUNNY     52  45  76 NW6       30.14R
HINCKLEY       FAIR      54  46  76 NW12      30.16R
CLOQUET        SUNNY     52  45  76 NW8       30.14R
MCGREGOR       SUNNY     52  46  82 NW9       30.17R
$$
MNZ071>073-080-081-089-090-097-098-261400-
   Southwest Minnesota

CITY           SKY/WX    TMP DP  RH WIND       PRES   REMARKS
MONTEVIDEO     SUNNY     57  52  82 N3        30.23R
GRANITE FALLS  SUNNY     56  49  79 NW5       30.25R
CANBY          SUNNY     55  47  74 CALM      30.26R
MARSHALL       SUNNY     54  47  77 NW8       30.24R
REDWOOD FALLS  SUNNY     55  46  71 N3        30.22R
OLIVIA         SUNNY     54  46  76 N6        30.21R
PIPESTONE      SUNNY     55  46  71 NE6       30.22S
WINDOM         SUNNY     55  46  71 N8        30.22R
WORTHINGTON    SUNNY     55  49  80 N13       30.22R
JACKSON        SUNNY     55  48  76 N3        30.21S
TRACY          SUNNY     55  48  79 N3        30.24R
SLAYTON        SUNNY     52  48  86 N7        30.23S
$$
MNZ065>067-074>077-082>085-091>093-261400-
   South Central Minnesota

CITY           SKY/WX    TMP DP  RH WIND       PRES   REMARKS
MANKATO        SUNNY     55  46  71 N9        30.20R
NEW ULM        SUNNY     55  45  67 N5        30.21R
ST JAMES       SUNNY     55  48  76 NW5       30.22R
FAIRMONT       SUNNY     56  48  74 N10       30.21
GLENCOE        SUNNY     55  49  81 N5        30.19S
FARIBAULT      SUNNY     55  46  71 NW6       30.19R
OWATONNA       SUNNY     55  48  76 NW7       30.19R
WASECA         SUNNY     55  46  71 NW8       30.21R
ALBERT LEA     SUNNY     57  46  67 N7        30.19R
$$
MNZ078>079-086>088-094>096-261400-
   Southeast Minnesota

CITY           SKY/WX    TMP DP  RH WIND       PRES   REMARKS
ROCHESTER      SUNNY     55  47  74 NW10      30.18R
RED WING       SUNNY     55  46  71 W5        30.16S
STANTON        SUNNY     55  47  74 N5        30.17S
DODGE CENTER   SUNNY     54  46  76 NW9       30.18R
WINONA         MOSUNNY   55  46  71 NW8       30.16S
AUSTIN         SUNNY     55  46  71 NW6       30.18R
PRESTON        SUNNY     54  46  73 NW9       30.17S
$$
ABBREVIATIONS USED IN REMARKS
   TC - TEMPERATURES IN CELSIUS
  WCI - WIND CHILL INDEX
   HX - HEAT INDEX
  VSB - VISIBILITY
$$



USA.gov is the U.S. government's official web portal to all federal, state and local government web resources and services.